User: anonymous   Login
Location: Unspecified
(0.0000°N, 0.0000°E)
Time: 13:15:02
(UTC+00:00)
Language:

OBJECT AA - Orbit

View from above orbital plane
View from above orbital plane
View from above satellite
View from above satellite

Ground track
Ground track

The orbit data is extracted from the following two-line orbital elements,

1 42849U 17042AA  21016.15418377  .00000243  00000-0  28775-4 0  9999
2 42849  97.4962 256.6066 0006671 291.5509  68.5000 14.92613727191134
Epoch (UTC): 16 January 2021 03:42:01
Eccentricity: 0.0006671
inclination: 97.4962°
perigee height: 585 km
apogee height: 594 km
right ascension of ascending node: 256.6066°
argument of perigee: 291.5509°
revolutions per day: 14.92613727
mean anomaly at epoch: 68.5000°
orbit number at epoch: 19113

The dashed part of the orbit path shows where the satellite is in the earth's shadow,  

DLR